Meteo Giornale » Osservazioni meteo Italia » Roma-Ciampino

ore: 02:50 - Osservazioni Meteo Roma-Ciampino
Lat. 41° 47' N Lon. 12° 35' E Alt. 129 metri s.l.m.

sereno Europe/Rome

10 °C

Sereno

Temp. 24 Ore

10 °C

18 °C

Nord

5.5 Km/h

Dew point 9 °C

Umidità 93 %

Visibilità  10 Km

Il sole sorge alle ore 07:03

Il sole tramonta alle ore 18:56

Data e Ora Cielo e Fenomeni T °C DP °C Um. % Pres. hPa Vis. km Vento km/h
Oggi h: 02:50 sereno Sereno 10 9 93 1015 10 N 5.5
Oggi h: 02:20 sereno Sereno 10 9 93 1014 10 N 3.7
Oggi h: 01:50 sereno Sereno 12 9 81 1014 10 N 1.8
Oggi h: 01:20 sereno Sereno 12 9 81 1014 10 N 3.7
Oggi h: 00:50 sereno Sereno 12 10 87 1014 10 N 5.5
Oggi h: 00:20 sereno Sereno 12 10 87 1014 10 N 5.5
Ieri h: 23:50 sereno Sereno 13 10 81 1014 10 N 3.7
Ieri h: 23:20 sereno Sereno 13 10 81 1013 10 N 3.7
Ieri h: 22:50 sereno Sereno 12 10 87 1013 10 N 3.7
Ieri h: 22:20 sereno Sereno 12 11 93 1013 10 N 1.8
Ieri h: 21:50 sereno Sereno 13 11 87 1013 10 N 1.8
Ieri h: 21:20 sereno Sereno 13 11 87 1012 10 N 5.5
Ieri h: 20:50 sereno Sereno 14 12 87 1012 10 N 1.8
Ieri h: 20:20 sereno Sereno 15 12 82 1012 10 S/SE 7.4
Ieri h: 19:50 sereno Sereno 15 12 82 1012 10 N 5.5
Ieri h: 19:20 poco_nuvoloso Poco Nuvoloso 16 12 77 1011 10 N 3.7
Ieri h: 18:50 poco_nuvoloso Poco Nuvoloso 17 11 67 1011 10 SO 7.4
Ieri h: 17:50 nuvoloso Nuvoloso 18 11 63 1010 10 O/SO 11.1
Ieri h: 17:20 nuvoloso Nuvoloso 18 11 63 1010 10 SO 14.8
Ieri h: 16:50 nuvoloso Nuvoloso 18 12 67 1010 10 SO 14.8
Ieri h: 15:50 poco_nuvoloso Poco Nuvoloso 17 13 77 1010 10 S/SO 14.8
Ieri h: 15:20 nuvoloso Nuvoloso 16 13 82 1010 10 S 14.8
Ieri h: 14:50 nuvoloso Nuvoloso 15 12 82 1010 10 S 11.1
Ieri h: 14:20 coperto_pioggia Pioggia Debole 14 12 87 1010 9 N 5.5
Ieri h: 13:50 coperto_pioggia Pioggia 13 12 93 1010 6 N 5.5
Ieri h: 13:20 coperto_pioggia Pioggia Debole 13 12 93 1010 10 N 5.5
Ieri h: 12:50 coperto_pioggia Pioggia Debole 13 12 93 1010 7 E 11.1
Ieri h: 12:20 coperto_pioggia Pioggia 13 12 93 1010 6 N 9.3
Ieri h: 11:50 coperto_pioggia Pioggia 13 12 93 1010 4 N/NO 20.3
Ieri h: 11:20 coperto_pioggia Pioggia 13 12 93 1010 4 N/NE 7.4
Ieri h: 10:50 coperto_pioggia Pioggia 14 11 82 1009 8 E/NE 7.4
Ieri h: 10:20 nuvoloso Nuvoloso 15 11 76 1009 10 E/SE 11.1
Ieri h: 09:50 coperto_pioggia Pioggia Debole 14 10 76 1009 10 S 9.3
Ieri h: 09:20 coperto_pioggia Pioggia Debole 14 10 76 1009 10 S/SO 7.4
Ieri h: 08:50 coperto_pioggia Pioggia Debole 13 10 81 1008 10 N 1.8
Ieri h: 08:20 nuvoloso Nuvoloso 13 10 81 1008 10 N 3.7
Ieri h: 07:50 nuvoloso Nuvoloso 13 10 81 1008 10 S 9.3
Ieri h: 07:20 nuvoloso Nuvoloso 12 9 81 1007 10 SE 9.3
Ieri h: 06:50 nuvoloso Nuvoloso 12 9 81 1007 10 SE 9.3
Ieri h: 06:20 nuvoloso Nuvoloso 11 9 87 1007 10 S/SE 7.4
Ieri h: 05:50 nuvoloso Nuvoloso 11 10 93 1007 10 S/SE 7.4
Ieri h: 05:20 nuvoloso Nuvoloso 10 9 93 1008 10 N 7.4
Ieri h: 04:50 sereno Sereno 11 8 81 1007 10 N 1.8
Ieri h: 04:20 sereno Sereno 11 9 87 1007 10 N 5.5
Ieri h: 03:50 sereno Sereno 11 9 87 1007 10 N 1.8